SDM2212 UTDL-UTAA

Flight info

Callsign SDM2212
Flight time 1h 23m
Altitude 36000
Route PF1B PF Y300 RONVU Q325 SKD Y92 OGNOB L141 MANAT/N0468F360 B376 LBA A117 DUTAR
Aircraft B77W/H-SDE1E2E3FGHIJ2J3J4J5M1RWXY/LB1D1

Departure

Time 2026-04-20 06:44
Airport Khujand International Airport (UTDL)

Arrival

Time 2026-04-20 08:07
Airport Ashgabat International Airport (UTAA)
Time Latitude Longitude Altitude Speed Heading
2026-04-20 06:34 40.22039 69.70455 1420 ft 0 kts 146°
2026-04-20 06:36 40.22012 69.70476 1420 ft 10 kts 155°
2026-04-20 06:37 40.21947 69.70451 1420 ft 10 kts 226°
2026-04-20 06:37 40.21920 69.70364 1422 ft 10 kts 257°
2026-04-20 06:37 40.21904 69.70271 1425 ft 10 kts 257°
2026-04-20 06:37 40.21889 69.70178 1425 ft 10 kts 258°
2026-04-20 06:38 40.21875 69.70085 1427 ft 10 kts 259°
2026-04-20 06:38 40.21862 69.69991 1428 ft 10 kts 261°
2026-04-20 06:38 40.21892 69.69908 1429 ft 11 kts 300°
2026-04-20 06:38 40.21887 69.69815 1431 ft 11 kts 259°
2026-04-20 06:39 40.21877 69.69720 1433 ft 11 kts 264°
2026-04-20 06:39 40.21868 69.69625 1434 ft 11 kts 256°
2026-04-20 06:39 40.21815 69.69562 1436 ft 11 kts 205°
2026-04-20 06:39 40.21748 69.69524 1436 ft 11 kts 203°
2026-04-20 06:40 40.21680 69.69487 1438 ft 11 kts 201°
2026-04-20 06:40 40.21612 69.69453 1439 ft 11 kts 201°
2026-04-20 06:40 40.21547 69.69410 1440 ft 11 kts 226°
2026-04-20 06:40 40.21523 69.69313 1441 ft 14 kts 261°
2026-04-20 06:41 40.21510 69.69182 1443 ft 14 kts 263°
2026-04-20 06:41 40.21496 69.69053 1445 ft 14 kts 262°
2026-04-20 06:41 40.21483 69.68923 1442 ft 14 kts 262°
2026-04-20 06:41 40.21469 69.68792 1449 ft 15 kts 262°
2026-04-20 06:42 40.21452 69.68633 1449 ft 18 kts 262°
2026-04-20 06:42 40.21443 69.68471 1454 ft 15 kts 282°
2026-04-20 06:42 40.21456 69.68400 1455 ft 6 kts 253°
2026-04-20 06:42 40.21431 69.68390 1456 ft 3 kts 154°
2026-04-20 06:43 40.21428 69.68419 1453 ft 4 kts 80°
2026-04-20 06:43 40.21429 69.68425 1455 ft 0 kts 81°
2026-04-20 06:43 40.21429 69.68427 1455 ft 4 kts 81°
2026-04-20 06:43 40.21462 69.68720 1451 ft 74 kts 82°
2026-04-20 06:44 40.21569 69.69765 1434 ft 155 kts 82°
2026-04-20 06:44 40.21745 69.71368 1812 ft 177 kts 80°
2026-04-20 06:44 40.21887 69.72853 3066 ft 160 kts 83°
2026-04-20 06:44 40.21974 69.74375 3619 ft 182 kts 89°
2026-04-20 06:45 40.21620 69.76119 3750 ft 217 kts 116°
2026-04-20 06:45 40.20612 69.77772 3981 ft 250 kts 138°
2026-04-20 06:45 40.19070 69.78918 4513 ft 263 kts 162°
2026-04-20 06:45 40.17215 69.79176 5217 ft 274 kts 188°
2026-04-20 06:46 40.15426 69.78317 6063 ft 279 kts 215°
2026-04-20 06:46 40.14131 69.76457 6936 ft 280 kts 244°
2026-04-20 06:46 40.13631 69.74009 7747 ft 281 kts 266°
2026-04-20 06:46 40.13562 69.71413 8496 ft 288 kts 268°
2026-04-20 06:47 40.13463 69.68821 9336 ft 291 kts 266°
2026-04-20 06:47 40.13288 69.66173 10193 ft 293 kts 264°
2026-04-20 06:47 40.13069 69.63468 10787 ft 309 kts 262°
2026-04-20 06:47 40.12757 69.60557 10986 ft 337 kts 261°
2026-04-20 06:48 40.12385 69.57400 11224 ft 365 kts 260°
2026-04-20 06:48 40.11987 69.54054 11801 ft 379 kts 260°
2026-04-20 06:48 40.11582 69.50627 12793 ft 382 kts 260°
2026-04-20 06:48 40.11178 69.47183 13904 ft 383 kts 261°
2026-04-20 06:49 40.10775 69.43732 14959 ft 386 kts 261°
2026-04-20 06:49 40.10369 69.40248 15970 ft 389 kts 262°
2026-04-20 06:49 40.09960 69.36734 16912 ft 393 kts 262°
2026-04-20 06:49 40.09550 69.33229 17794 ft 397 kts 262°
2026-04-20 06:50 40.09129 69.29648 18680 ft 401 kts 262°
2026-04-20 06:50 40.08747 69.26023 19515 ft 405 kts 264°
2026-04-20 06:50 40.08435 69.22347 20299 ft 410 kts 265°
2026-04-20 06:50 40.08140 69.18611 21031 ft 415 kts 265°
2026-04-20 06:51 40.07840 69.14846 21764 ft 419 kts 265°
2026-04-20 06:51 40.07524 69.11026 22477 ft 424 kts 265°
2026-04-20 06:51 40.07196 69.07181 23183 ft 427 kts 264°
2026-04-20 06:51 40.06861 69.03307 23840 ft 432 kts 264°
2026-04-20 06:52 40.06520 68.99392 24500 ft 435 kts 264°
2026-04-20 06:52 40.06167 68.95499 25104 ft 439 kts 263°
2026-04-20 06:52 40.05397 68.91622 25666 ft 446 kts 250°
2026-04-20 06:52 40.04137 68.87904 26233 ft 450 kts 248°
2026-04-20 06:53 40.03022 68.84076 26769 ft 452 kts 255°
2026-04-20 06:53 40.02252 68.80100 27277 ft 455 kts 258°
2026-04-20 06:53 40.01575 68.76030 27760 ft 459 kts 259°
2026-04-20 06:53 40.00918 68.71946 28267 ft 461 kts 259°
2026-04-20 06:54 40.00252 68.67840 28743 ft 463 kts 259°
2026-04-20 06:54 39.99568 68.63714 29166 ft 466 kts 259°
2026-04-20 06:54 39.98867 68.59577 29568 ft 469 kts 258°
2026-04-20 06:54 39.98151 68.55410 29971 ft 471 kts 258°
2026-04-20 06:55 39.97438 68.51303 30447 ft 470 kts 258°
2026-04-20 06:55 39.96715 68.47159 30996 ft 467 kts 258°
2026-04-20 06:55 39.95995 68.43050 31530 ft 464 kts 258°
2026-04-20 06:55 39.95278 68.38956 32019 ft 462 kts 258°
2026-04-20 06:56 39.94561 68.34860 32447 ft 462 kts 258°
2026-04-20 06:56 39.93845 68.30776 32902 ft 461 kts 258°
2026-04-20 06:56 39.93129 68.26711 33360 ft 459 kts 259°
2026-04-20 06:56 39.92413 68.22660 33801 ft 457 kts 259°
2026-04-20 06:57 39.91700 68.18635 34195 ft 456 kts 259°
2026-04-20 06:57 39.90984 68.14597 34515 ft 457 kts 259°
2026-04-20 06:57 39.90270 68.10574 34889 ft 456 kts 259°
2026-04-20 06:57 39.89556 68.06561 35274 ft 454 kts 259°
2026-04-20 06:58 39.88851 68.02606 35635 ft 453 kts 259°
2026-04-20 06:58 39.88137 67.98613 35907 ft 454 kts 259°
2026-04-20 06:58 39.87415 67.94574 35939 ft 458 kts 259°
2026-04-20 06:59 39.85952 67.86422 35971 ft 466 kts 259°
2026-04-20 06:59 39.84462 67.78167 35970 ft 469 kts 259°
2026-04-20 07:00 39.82974 67.69956 35962 ft 470 kts 259°
2026-04-20 07:00 39.81466 67.61667 35954 ft 469 kts 258°
2026-04-20 07:01 39.79961 67.53419 35951 ft 468 kts 258°
2026-04-20 07:01 39.78467 67.45247 35954 ft 466 kts 258°
2026-04-20 07:02 39.76961 67.37050 35941 ft 464 kts 258°
2026-04-20 07:02 39.75460 67.28909 35946 ft 462 kts 258°
2026-04-20 07:03 39.74082 67.20764 35945 ft 460 kts 261°
2026-04-20 07:03 39.72837 67.12608 35944 ft 460 kts 260°
2026-04-20 07:04 39.71560 67.04529 35944 ft 459 kts 260°
2026-04-20 07:04 39.70752 66.96331 35937 ft 457 kts 269°
2026-04-20 07:05 39.70975 66.88101 35936 ft 456 kts 276°
2026-04-20 07:05 39.71592 66.79905 35935 ft 456 kts 276°
2026-04-20 07:06 39.72187 66.71702 35937 ft 456 kts 275°
2026-04-20 07:06 39.72752 66.63544 35938 ft 455 kts 275°
2026-04-20 07:07 39.73307 66.55342 35933 ft 456 kts 275°
2026-04-20 07:07 39.73847 66.47146 35935 ft 455 kts 273°
2026-04-20 07:08 39.73394 66.38944 35940 ft 457 kts 261°
2026-04-20 07:08 39.71707 66.30983 35931 ft 459 kts 252°
2026-04-20 07:09 39.69443 66.23208 35928 ft 459 kts 251°
2026-04-20 07:09 39.67190 66.15440 35931 ft 459 kts 252°
2026-04-20 07:10 39.64973 66.07670 35916 ft 459 kts 252°
2026-04-20 07:10 39.62759 65.99905 35917 ft 459 kts 252°
2026-04-20 07:11 39.60534 65.92148 35916 ft 459 kts 251°
2026-04-20 07:11 39.58318 65.84438 35914 ft 458 kts 251°
2026-04-20 07:12 39.56085 65.76692 35906 ft 458 kts 251°
2026-04-20 07:12 39.53853 65.68976 35905 ft 457 kts 251°
2026-04-20 07:13 39.51615 65.61251 35899 ft 458 kts 251°
2026-04-20 07:13 39.49372 65.53523 35894 ft 459 kts 251°
2026-04-20 07:14 39.47121 65.45806 35900 ft 458 kts 251°
2026-04-20 07:14 39.44863 65.38087 35897 ft 458 kts 251°
2026-04-20 07:15 39.42615 65.30424 35898 ft 458 kts 251°
2026-04-20 07:15 39.40349 65.22716 35898 ft 457 kts 251°
2026-04-20 07:16 39.38082 65.15025 35900 ft 457 kts 251°
2026-04-20 07:16 39.35807 65.07333 35887 ft 458 kts 251°
2026-04-20 07:17 39.33528 64.99653 35869 ft 458 kts 251°
2026-04-20 07:17 39.31248 64.91979 35865 ft 457 kts 251°
2026-04-20 07:18 39.28963 64.84313 35858 ft 457 kts 251°
2026-04-20 07:18 39.26683 64.76714 35881 ft 457 kts 250°
2026-04-20 07:19 39.24374 64.69059 35880 ft 457 kts 250°
2026-04-20 07:19 39.22062 64.61403 35856 ft 458 kts 250°
2026-04-20 07:20 39.20140 64.55050 35867 ft 457 kts 250°
2026-04-20 07:20 39.17818 64.47396 35860 ft 457 kts 250°
2026-04-20 07:21 39.15498 64.39768 35860 ft 458 kts 250°
2026-04-20 07:21 39.13167 64.32121 35849 ft 457 kts 250°
2026-04-20 07:22 39.10849 64.24543 35843 ft 457 kts 250°
2026-04-20 07:22 39.08518 64.16939 35842 ft 456 kts 250°
2026-04-20 07:23 39.06224 64.09329 35844 ft 456 kts 251°
2026-04-20 07:23 39.04003 64.01677 35837 ft 456 kts 251°
2026-04-20 07:24 39.01777 63.94030 35835 ft 456 kts 251°
2026-04-20 07:24 38.99541 63.86413 35830 ft 455 kts 251°
2026-04-20 07:25 38.97312 63.78857 35834 ft 454 kts 251°
2026-04-20 07:25 38.95069 63.71270 35834 ft 454 kts 251°
2026-04-20 07:26 38.92823 63.63688 35831 ft 454 kts 251°
2026-04-20 07:26 38.91068 63.55938 35833 ft 451 kts 259°
2026-04-20 07:27 38.90172 63.47963 35839 ft 451 kts 263°
2026-04-20 07:27 38.89335 63.40026 35833 ft 451 kts 263°
2026-04-20 07:28 38.88470 63.32042 35834 ft 451 kts 263°
2026-04-20 07:28 38.87588 63.24035 35835 ft 451 kts 262°
2026-04-20 07:29 38.86706 63.16107 35833 ft 452 kts 262°
2026-04-20 07:29 38.85815 63.08115 35826 ft 452 kts 262°
2026-04-20 07:30 38.84915 63.00135 35824 ft 452 kts 262°
2026-04-20 07:30 38.84011 62.92160 35823 ft 451 kts 262°
2026-04-20 07:31 38.83109 62.84243 35827 ft 451 kts 262°
2026-04-20 07:31 38.82198 62.76291 35823 ft 451 kts 262°
2026-04-20 07:32 38.81279 62.68327 35825 ft 451 kts 262°
2026-04-20 07:32 38.80356 62.60377 35816 ft 451 kts 262°
2026-04-20 07:33 38.79429 62.52423 35815 ft 450 kts 262°
2026-04-20 07:33 38.78497 62.44494 35814 ft 450 kts 262°
2026-04-20 07:34 38.77568 62.36618 35819 ft 449 kts 262°
2026-04-20 07:34 38.76628 62.28707 35813 ft 449 kts 262°
2026-04-20 07:35 38.75207 62.16848 35806 ft 448 kts 262°
2026-04-20 07:35 38.74255 62.08959 35805 ft 447 kts 262°
2026-04-20 07:36 38.73299 62.01083 35806 ft 447 kts 262°
2026-04-20 07:36 38.72340 61.93215 35806 ft 447 kts 261°
2026-04-20 07:37 38.71381 61.85407 35804 ft 446 kts 261°
2026-04-20 07:37 38.70412 61.77555 35801 ft 446 kts 261°
2026-04-20 07:38 38.69439 61.69709 35792 ft 445 kts 261°
2026-04-20 07:38 38.68462 61.61884 35798 ft 446 kts 261°
2026-04-20 07:39 38.67479 61.54044 35798 ft 446 kts 261°
2026-04-20 07:39 38.66491 61.46208 35797 ft 446 kts 261°
2026-04-20 07:40 38.65482 61.38429 35797 ft 446 kts 259°
2026-04-20 07:40 38.64004 61.30719 35805 ft 446 kts 256°
2026-04-20 07:41 38.62442 61.23034 35796 ft 446 kts 256°
2026-04-20 07:41 38.60884 61.15347 35797 ft 446 kts 256°
2026-04-20 07:42 38.59332 61.07665 35797 ft 446 kts 256°
2026-04-20 07:42 38.57781 60.99995 35801 ft 445 kts 256°
2026-04-20 07:43 38.56236 60.92384 35795 ft 445 kts 256°
2026-04-20 07:43 38.54675 60.84722 35799 ft 445 kts 256°
2026-04-20 07:44 38.53112 60.77075 35798 ft 444 kts 256°
2026-04-20 07:44 38.51546 60.69450 35798 ft 443 kts 256°
2026-04-20 07:45 38.49976 60.61822 35798 ft 443 kts 256°
2026-04-20 07:45 38.48418 60.54282 35795 ft 442 kts 256°
2026-04-20 07:46 38.46854 60.46741 35056 ft 441 kts 256°
2026-04-20 07:46 38.46065 60.42953 34254 ft 440 kts 256°
2026-04-20 07:46 38.45278 60.39171 33302 ft 441 kts 256°
2026-04-20 07:47 38.44486 60.35379 32311 ft 442 kts 256°
2026-04-20 07:47 38.43694 60.31594 31497 ft 440 kts 256°
2026-04-20 07:47 38.42907 60.27827 30709 ft 438 kts 255°
2026-04-20 07:47 38.42120 60.24083 29947 ft 435 kts 255°
2026-04-20 07:48 38.41338 60.20363 29191 ft 433 kts 255°
2026-04-20 07:48 38.40560 60.16670 28455 ft 430 kts 255°
2026-04-20 07:48 38.39794 60.13046 27714 ft 427 kts 255°
2026-04-20 07:48 38.39025 60.09400 26987 ft 425 kts 255°
2026-04-20 07:49 38.38257 60.05769 26262 ft 422 kts 255°
2026-04-20 07:49 38.37494 60.02166 25551 ft 419 kts 254°
2026-04-20 07:49 38.36736 59.98591 24836 ft 416 kts 254°
2026-04-20 07:49 38.35980 59.95044 24149 ft 413 kts 254°
2026-04-20 07:50 38.35230 59.91523 23468 ft 410 kts 253°
2026-04-20 07:50 38.34485 59.88030 22793 ft 407 kts 253°
2026-04-20 07:50 38.33745 59.84566 22142 ft 403 kts 253°
2026-04-20 07:50 38.33010 59.81132 21489 ft 400 kts 253°
2026-04-20 07:51 38.32281 59.77726 20862 ft 397 kts 253°
2026-04-20 07:51 38.31556 59.74353 20238 ft 393 kts 253°
2026-04-20 07:51 38.30838 59.71012 19624 ft 390 kts 253°
2026-04-20 07:51 38.30126 59.67701 19014 ft 386 kts 253°
2026-04-20 07:52 38.29416 59.64416 18416 ft 383 kts 253°
2026-04-20 07:52 38.28724 59.61212 17834 ft 379 kts 253°
2026-04-20 07:52 38.28023 59.57978 17252 ft 379 kts 253°
2026-04-20 07:52 38.27320 59.54744 16665 ft 379 kts 253°
2026-04-20 07:53 38.26618 59.51514 16071 ft 372 kts 253°
2026-04-20 07:53 38.25953 59.48445 15502 ft 351 kts 253°
2026-04-20 07:53 38.25301 59.45446 14990 ft 352 kts 253°
2026-04-20 07:53 38.24646 59.42436 14454 ft 354 kts 253°
2026-04-20 07:54 38.23986 59.39409 13914 ft 355 kts 253°
2026-04-20 07:54 38.23333 59.36415 13380 ft 356 kts 253°
2026-04-20 07:54 38.22667 59.33372 12840 ft 357 kts 253°
2026-04-20 07:54 38.21859 59.30399 12294 ft 356 kts 246°
2026-04-20 07:55 38.20783 59.27563 11773 ft 356 kts 243°
2026-04-20 07:55 38.19638 59.24828 11339 ft 342 kts 242°
2026-04-20 07:55 38.18529 59.22212 10836 ft 334 kts 242°
2026-04-20 07:55 38.17441 59.19623 10777 ft 324 kts 242°
2026-04-20 07:56 38.16400 59.17110 10657 ft 317 kts 243°
2026-04-20 07:56 38.15395 59.14657 10534 ft 310 kts 243°
2026-04-20 07:56 38.14431 59.12285 10394 ft 292 kts 243°
2026-04-20 07:56 38.13542 59.10085 10284 ft 279 kts 243°
2026-04-20 07:57 38.12664 59.07906 10178 ft 275 kts 243°
2026-04-20 07:57 38.11799 59.05754 10066 ft 271 kts 243°
2026-04-20 07:57 38.10945 59.03638 9858 ft 270 kts 243°
2026-04-20 07:57 38.10081 59.01495 9549 ft 274 kts 243°
2026-04-20 07:58 38.09205 58.99323 9225 ft 278 kts 243°
2026-04-20 07:58 38.08314 58.97114 8887 ft 284 kts 243°
2026-04-20 07:58 38.07409 58.94875 8626 ft 285 kts 243°
2026-04-20 07:58 38.06500 58.92626 8335 ft 288 kts 243°
2026-04-20 07:59 38.05599 58.90399 8104 ft 286 kts 243°
2026-04-20 07:59 38.04708 58.88193 7743 ft 275 kts 243°
2026-04-20 07:59 38.03847 58.86063 7227 ft 268 kts 243°
2026-04-20 07:59 38.03008 58.83987 6874 ft 263 kts 243°
2026-04-20 08:00 38.02171 58.81921 6532 ft 263 kts 243°
2026-04-20 08:00 38.01338 58.79863 6204 ft 262 kts 244°
2026-04-20 08:00 38.00503 58.77804 5884 ft 261 kts 244°
2026-04-20 08:00 37.99672 58.75756 5561 ft 260 kts 244°
2026-04-20 08:01 37.98845 58.73722 5244 ft 259 kts 244°
2026-04-20 08:01 37.98028 58.71711 4931 ft 259 kts 244°
2026-04-20 08:01 37.97194 58.69660 4607 ft 258 kts 244°
2026-04-20 08:01 37.96386 58.67673 4302 ft 257 kts 244°
2026-04-20 08:02 37.95567 58.65664 3986 ft 256 kts 244°
2026-04-20 08:02 37.94748 58.63658 3685 ft 255 kts 244°
2026-04-20 08:02 37.93933 58.61662 3445 ft 252 kts 244°
2026-04-20 08:02 37.93158 58.59707 3310 ft 244 kts 247°
2026-04-20 08:03 37.92481 58.57781 3192 ft 235 kts 249°
2026-04-20 08:03 37.91835 58.55900 2943 ft 231 kts 249°
2026-04-20 08:03 37.91209 58.54078 2666 ft 217 kts 252°
2026-04-20 08:03 37.91110 58.52318 2516 ft 193 kts 288°
2026-04-20 08:04 37.91602 58.50747 2574 ft 191 kts 294°
2026-04-20 08:04 37.92110 58.49227 2578 ft 185 kts 294°
2026-04-20 08:04 37.92675 58.47770 2519 ft 184 kts 298°
2026-04-20 08:04 37.93294 58.46357 2300 ft 185 kts 300°
2026-04-20 08:05 37.93914 58.44967 2042 ft 176 kts 300°
2026-04-20 08:05 37.94491 58.43676 1804 ft 161 kts 300°
2026-04-20 08:05 37.95016 58.42497 1627 ft 149 kts 300°
2026-04-20 08:05 37.95530 58.41342 1427 ft 151 kts 300°
2026-04-20 08:06 37.96046 58.40182 1225 ft 150 kts 300°
2026-04-20 08:06 37.96557 58.39035 1022 ft 150 kts 300°
2026-04-20 08:06 37.97082 58.37894 822 ft 149 kts 298°
2026-04-20 08:06 37.97585 58.36748 686 ft 145 kts 299°
2026-04-20 08:07 37.98026 58.35761 679 ft 106 kts 300°
2026-04-20 08:07 37.98296 58.35153 681 ft 53 kts 299°
2026-04-20 08:07 37.98365 58.34998 678 ft 21 kts 299°
2026-04-20 08:07 37.98437 58.34837 677 ft 21 kts 299°
2026-04-20 08:08 37.98509 58.34676 676 ft 21 kts 299°
2026-04-20 08:08 37.98606 58.34542 680 ft 21 kts 328°
2026-04-20 08:08 37.98720 58.34450 679 ft 17 kts 328°
2026-04-20 08:08 37.98806 58.34414 678 ft 10 kts 11°
2026-04-20 08:09 37.98829 58.34488 678 ft 10 kts 107°
2026-04-20 08:09 37.98796 58.34572 677 ft 11 kts 120°
2026-04-20 08:09 37.98759 58.34654 677 ft 11 kts 120°
2026-04-20 08:09 37.98710 58.34764 678 ft 25 kts 119°
2026-04-20 08:10 37.98610 58.34989 677 ft 30 kts 120°
2026-04-20 08:10 37.98508 58.35216 676 ft 30 kts 119°
2026-04-20 08:10 37.98408 58.35448 676 ft 30 kts 119°
2026-04-20 08:10 37.98305 58.35679 679 ft 30 kts 120°
2026-04-20 08:11 37.98201 58.35908 681 ft 30 kts 119°
2026-04-20 08:11 37.98099 58.36139 679 ft 30 kts 119°
2026-04-20 08:11 37.97998 58.36370 676 ft 30 kts 119°
2026-04-20 08:11 37.97942 58.36503 679 ft 12 kts 104°
2026-04-20 08:12 37.97984 58.36583 681 ft 12 kts 35°
2026-04-20 08:12 37.98055 58.36635 680 ft 12 kts 28°
2026-04-20 08:12 37.98126 58.36684 682 ft 12 kts 29°
2026-04-20 08:12 37.98161 58.36771 678 ft 12 kts 84°
2026-04-20 08:13 37.98208 58.36847 678 ft 5 kts 32°
2026-04-20 08:13 37.98214 58.36853 680 ft 0 kts 33°